Flag for United Kingdom Weather past 2 weeks in Guildford, England, United Kingdom

Now
61 °F

Partly sunny.


Feels Like: 61 °F
Forecast: 51 / 62 °F
Wind: 3 mph from North

Location: Farnborough Airport

Current Time: May 22, 2015 at 8:56:44 PM

Latest Report: May 22, 2015 at 8:20 PM


Visibility: N/A

Pressure: 30.21 "Hg

Humidity: 88%

Dew point: 57 °F

Location of GuildfordLocation

Historic Weather in Guildford — Graph

°F

Guildford temperature yesterday

Maximum temperature yesterday: 64 °F (at 2:50 PM)
Minimum temperature yesterday: 45 °F (at 6:50 AM)
Average temperature yesterday: 59 °F

Past Weeks' High & Low Weather Summary

 TemperatureHumidityPressure
High68 °F (May 13, 3:20 PM)100% (May 14, 4:20 PM)30.36 "Hg (May 14, 4:20 PM)
Low41 °F (May 13, 6:50 AM)26% (May 13, 7:20 PM)29.62 "Hg (May 18, 11:50 AM)
Average56 °F66%30.05 "Hg
* Reported May 7 7:20 PM — May 22 7:20 PM, Guildford, Weather by CustomWeather, © 2015

Note: Actual official high and low records may vary slightly from our data, if they occured in-between our weather recording intervals... More about our weather records

Advertising

Guildford weather history for previous 24 hours

 ConditionsComfort  
Time TempWeatherWind HumidityBarometerVisibility
7:20 PM
Fri, May 22
63 °FPartly sunny.3 mph77%30.21 "HgN/A
6:50 PM63 °FPartly sunny.5 mph73%30.21 "HgN/A
6:20 PM64 °FScattered clouds.3 mph68%30.21 "HgN/A
5:50 PM64 °FScattered clouds.5 mph68%30.21 "HgN/A
5:20 PM64 °FScattered clouds.6 mph73%30.21 "HgN/A
4:50 PM63 °FPartly sunny.3 mph77%30.24 "HgN/A
4:20 PM63 °FPartly sunny.5 mph77%30.24 "HgN/A
3:50 PM61 °FPartly sunny.8 mph77%30.24 "HgN/A
3:20 PM59 °FPartly sunny.7 mph88%30.24 "HgN/A
2:50 PM57 °FLight rain. Broken clouds.7 mph94%30.27 "Hg4 mi
2:20 PM57 °FSprinkles. Partly sunny.10 mph82%30.27 "HgN/A
1:50 PM59 °FPartly sunny.6 mph82%30.27 "HgN/A
1:20 PM57 °FPartly sunny.8 mph82%30.27 "HgN/A
12:50 PM57 °FPartly sunny.7 mph82%30.27 "HgN/A
12:20 PM55 °FPartly sunny.10 mph88%30.30 "HgN/A
11:50 AM57 °FScattered clouds.10 mph82%30.30 "HgN/A
11:20 AM55 °FScattered clouds.10 mph88%30.30 "HgN/A
10:50 AM55 °FLight rain. Broken clouds.10 mph88%30.30 "HgN/A
10:20 AM57 °FScattered clouds.9 mph77%30.30 "HgN/A
9:50 AM55 °FScattered clouds.8 mph82%30.30 "HgN/A
9:20 AM55 °FPassing clouds.9 mph77%30.30 "HgN/A
8:50 AM54 °FPassing clouds.7 mph77%30.30 "HgN/A
8:20 AM52 °FPassing clouds.8 mph82%30.30 "HgN/A
7:50 AM50 °FPassing clouds.6 mph88%30.30 "HgN/A
7:20 AM48 °FSunny.6 mph87%30.30 "Hg10 mi
6:50 AM46 °FSunny.3 mph93%30.30 "Hg10 mi
9:20 PM
Thu, May 21
57 °FPassing clouds.7 mph55%30.30 "HgN/A
8:50 PM59 °FPassing clouds.7 mph48%30.33 "HgN/A
8:20 PM59 °FSunny.8 mph51%30.30 "Hg10 mi
Weather by CustomWeather, © 2015

See weather overviewHow to use our weather pages